When you browse on this site, cookies collect data to enhance your experience and personalize the content and advertising you see.
Visit our Privacy Policy to learn more. By continuing to use the site, you agree to this use of cookies and data.
  • en Suisse
  • Liste des pays
  • À 7 jours
  • Température de l'eau
  • Carte satellitaire
  • Carte météo
  • Widgets météo
  • user-avatar
    Se connecter

    Météo par heure à San Carlos

    Ce jour, 23 Juillet, Mardi

    Heure Température Précipitation Vent Pression Humidité
    00:00 +24°C° 0.1 mm 1 m/s 746 mmHg 96%
    01:00 +24°C° 0.1 mm 1 m/s 745 mmHg 95%
    02:00 +22°C° 0.2 mm 0 m/s 745 mmHg 95%
    03:00 +22°C° 0.2 mm 0 m/s 745 mmHg 96%
    04:00 +22°C° 0.2 mm 0 m/s 745 mmHg 96%
    05:00 +23°C° 0.2 mm 0 m/s 745 mmHg 95%
    06:00 +23°C° 0.2 mm 0 m/s 746 mmHg 95%
    07:00 +24°C° 0.2 mm 0 m/s 747 mmHg 95%
    08:00 +27°C° 0 mm 1 m/s 747 mmHg 88%
    09:00 +28°C° 0 mm 1 m/s 747 mmHg 81%
    10:00 +30°C° 0 mm 2 m/s 747 mmHg 74%
    11:00 +30°C° 0.2 mm 2 m/s 746 mmHg 72%
    12:00 +31°C° 0.2 mm 2 m/s 746 mmHg 70%
    13:00 +31°C° 0.2 mm 2 m/s 745 mmHg 68%
    14:00 +31°C° 0.2 mm 1 m/s 745 mmHg 73%
    15:00 +30°C° 0.2 mm 1 m/s 744 mmHg 77%
    16:00 +30°C° 0.2 mm 1 m/s 744 mmHg 81%
    17:00 +28°C° 0.1 mm 1 m/s 744 mmHg 86%
    18:00 +25°C° 0.1 mm 0 m/s 744 mmHg 90%
    19:00 +24°C° 0.1 mm 0 m/s 745 mmHg 95%
    20:00 +23°C° 0 mm 0 m/s 745 mmHg 95%
    21:00 +25°C° 0 mm 1 m/s 746 mmHg 95%
    22:00 +25°C° 0 mm 1 m/s 746 mmHg 96%
    23:00 +25°C° 0 mm 1 m/s 746 mmHg 96%

    Demain, 24 Juillet, Mercredi

    Heure Température Précipitation Vent Pression Humidité
    00:00 +24°C° 0 mm 1 m/s 746 mmHg 96%
    01:00 +24°C° 0 mm 1 m/s 745 mmHg 96%
    02:00 +24°C° 0 mm 1 m/s 745 mmHg 96%
    03:00 +24°C° 0 mm 1 m/s 745 mmHg 95%
    04:00 +24°C° 0 mm 1 m/s 745 mmHg 95%
    05:00 +24°C° 0 mm 1 m/s 746 mmHg 93%
    06:00 +25°C° 0 mm 1 m/s 746 mmHg 92%
    07:00 +24°C° 0 mm 0 m/s 746 mmHg 90%
    08:00 +28°C° 0 mm 1 m/s 747 mmHg 82%
    09:00 +29°C° 0 mm 2 m/s 747 mmHg 74%
    10:00 +31°C° 0 mm 2 m/s 747 mmHg 66%
    11:00 +31°C° 0.1 mm 2 m/s 746 mmHg 67%
    12:00 +31°C° 0.1 mm 2 m/s 746 mmHg 67%
    13:00 +31°C° 0.1 mm 2 m/s 745 mmHg 68%
    14:00 +31°C° 0.3 mm 1 m/s 744 mmHg 70%
    15:00 +31°C° 0.3 mm 1 m/s 744 mmHg 73%
    16:00 +28°C° 0.3 mm 0 m/s 744 mmHg 75%
    17:00 +27°C° 0.2 mm 0 m/s 744 mmHg 81%
    18:00 +27°C° 0.2 mm 1 m/s 744 mmHg 86%
    19:00 +26°C° 0.2 mm 1 m/s 744 mmHg 92%
    20:00 +25°C° 0.1 mm 1 m/s 745 mmHg 93%
    21:00 +25°C° 0.1 mm 1 m/s 746 mmHg 94%
    22:00 +25°C° 0.1 mm 1 m/s 746 mmHg 94%
    23:00 +24°C° 0 mm 1 m/s 746 mmHg 95%

    Après-demain, 25 Juillet, Jeudi

    Heure Température Précipitation Vent Pression Humidité
    00:00 +24°C° 0 mm 1 m/s 745 mmHg 95%
    01:00 +24°C° 0 mm 1 m/s 744 mmHg 95%
    02:00 +24°C° 0 mm 1 m/s 744 mmHg 95%
    03:00 +23°C° 0 mm 1 m/s 744 mmHg 95%
    04:00 +23°C° 0 mm 1 m/s 745 mmHg 95%
    05:00 +24°C° 0 mm 1 m/s 745 mmHg 93%
    06:00 +23°C° 0 mm 0 m/s 745 mmHg 92%
    07:00 +23°C° 0 mm 0 m/s 746 mmHg 90%
    08:00 +27°C° 0.1 mm 1 m/s 746 mmHg 85%
    09:00 +28°C° 0.1 mm 1 m/s 746 mmHg 79%
    10:00 +30°C° 0.1 mm 2 m/s 746 mmHg 73%
    11:00 +30°C° 0.2 mm 2 m/s 746 mmHg 71%
    12:00 +31°C° 0.2 mm 2 m/s 745 mmHg 69%
    13:00 +31°C° 0.2 mm 2 m/s 744 mmHg 67%
    14:00 +31°C° 0 mm 2 m/s 744 mmHg 68%
    15:00 +31°C° 0 mm 1 m/s 743 mmHg 70%
    16:00 +30°C° 0 mm 1 m/s 743 mmHg 72%
    17:00 +29°C° 0 mm 1 m/s 743 mmHg 79%
    18:00 +27°C° 0 mm 1 m/s 744 mmHg 86%
    19:00 +23°C° 0 mm 0 m/s 744 mmHg 93%
    20:00 +23°C° 0 mm 0 m/s 745 mmHg 93%
    21:00 +25°C° 0 mm 1 m/s 745 mmHg 94%
    22:00 +25°C° 0 mm 1 m/s 746 mmHg 94%
    23:00 +24°C° 0.4 mm 1 m/s 746 mmHg 95%

    26 Juillet, Vendredi

    Heure Température Précipitation Vent Pression Humidité
    00:00 +24°C° 0.4 mm 1 m/s 745 mmHg 95%
    01:00 +24°C° 0.4 mm 1 m/s 745 mmHg 96%
    02:00 +22°C° 0.1 mm 0 m/s 745 mmHg 96%
    03:00 +22°C° 0.1 mm 0 m/s 745 mmHg 96%
    04:00 +21°C° 0.1 mm 0 m/s 745 mmHg 96%
    05:00 +22°C° 0.2 mm 0 m/s 746 mmHg 96%
    06:00 +23°C° 0.2 mm 0 m/s 746 mmHg 96%
    07:00 +23°C° 0.2 mm 0 m/s 747 mmHg 96%
    08:00 +26°C° 0.8 mm 1 m/s 747 mmHg 92%
    09:00 +27°C° 0.8 mm 1 m/s 747 mmHg 89%
    10:00 +28°C° 0.8 mm 2 m/s 747 mmHg 86%
    11:00 +29°C° 0.9 mm 2 m/s 746 mmHg 81%
    12:00 +30°C° 0.9 mm 1 m/s 746 mmHg 76%
    13:00 +31°C° 0.9 mm 1 m/s 745 mmHg 72%
    14:00 +31°C° 0.3 mm 1 m/s 745 mmHg 73%
    15:00 +30°C° 0.3 mm 1 m/s 744 mmHg 75%
    16:00 +30°C° 0.3 mm 1 m/s 744 mmHg 76%
    17:00 +28°C° 2.1 mm 1 m/s 745 mmHg 82%
    18:00 +27°C° 2.1 mm 1 m/s 745 mmHg 88%
    19:00 +23°C° 2.1 mm 0 m/s 746 mmHg 94%
    20:00 +25°C° 0.4 mm 1 m/s 746 mmHg 95%
    21:00 +25°C° 0.4 mm 1 m/s 746 mmHg 95%
    22:00 +24°C° 0.4 mm 1 m/s 747 mmHg 95%
    23:00 +24°C° 0 mm 1 m/s 746 mmHg 95%

    27 Juillet, Samedi

    Heure Température Précipitation Vent Pression Humidité
    00:00 +24°C° 0 mm 1 m/s 746 mmHg 95%
    01:00 +24°C° 0 mm 1 m/s 745 mmHg 95%
    02:00 +24°C° 0 mm 1 m/s 745 mmHg 95%
    03:00 +24°C° 0 mm 1 m/s 745 mmHg 95%
    04:00 +23°C° 0 mm 1 m/s 745 mmHg 95%
    05:00 +22°C° 0.2 mm 0 m/s 746 mmHg 94%
    06:00 +23°C° 0.2 mm 0 m/s 747 mmHg 93%
    07:00 +24°C° 0.2 mm 0 m/s 747 mmHg 92%
    08:00 +25°C° 0.8 mm 0 m/s 747 mmHg 88%
    09:00 +28°C° 0.8 mm 1 m/s 747 mmHg 85%
    10:00 +30°C° 0.8 mm 1 m/s 747 mmHg 81%
    11:00 +29°C° 1.6 mm 1 m/s 747 mmHg 85%
    12:00 +28°C° 1.6 mm 1 m/s 746 mmHg 88%
    13:00 +28°C° 1.6 mm 1 m/s 746 mmHg 91%
    14:00 +27°C° 0.6 mm 1 m/s 745 mmHg 93%
    15:00 +27°C° 0.6 mm 1 m/s 745 mmHg 94%
    16:00 +26°C° 0.6 mm 1 m/s 745 mmHg 95%
    17:00 +26°C° 0.7 mm 1 m/s 745 mmHg 96%
    18:00 +23°C° 0.7 mm 0 m/s 746 mmHg 97%
    19:00 +23°C° 0.7 mm 0 m/s 746 mmHg 97%
    20:00 +22°C° 0.5 mm 0 m/s 747 mmHg 98%
    21:00 +22°C° 0.5 mm 0 m/s 747 mmHg 98%
    22:00 +24°C° 0.5 mm 1 m/s 747 mmHg 98%
    23:00 +22°C° 0.2 mm 0 m/s 747 mmHg 98%

    28 Juillet, Dimanche

    Heure Température Précipitation Vent Pression Humidité
    00:00 +22°C° 0.2 mm 0 m/s 746 mmHg 98%
    01:00 +22°C° 0.2 mm 0 m/s 746 mmHg 98%
    02:00 +22°C° 0.1 mm 0 m/s 746 mmHg 98%
    03:00 +21°C° 0.1 mm 0 m/s 746 mmHg 97%
    04:00 +21°C° 0.1 mm 0 m/s 746 mmHg 97%
    05:00 +22°C° 0 mm 0 m/s 746 mmHg 96%
    06:00 +22°C° 0 mm 0 m/s 746 mmHg 96%
    07:00 +23°C° 0 mm 0 m/s 747 mmHg 95%
    08:00 +25°C° 0.4 mm 1 m/s 747 mmHg 95%
    09:00 +25°C° 0.4 mm 1 m/s 747 mmHg 95%
    10:00 +26°C° 0.4 mm 2 m/s 748 mmHg 95%
    11:00 +25°C° 0.8 mm 1 m/s 747 mmHg 96%
    12:00 +25°C° 0.8 mm 1 m/s 747 mmHg 96%
    13:00 +25°C° 0.8 mm 1 m/s 746 mmHg 97%
    14:00 +25°C° 0.7 mm 1 m/s 746 mmHg 97%
    15:00 +25°C° 0.7 mm 1 m/s 745 mmHg 97%
    16:00 +23°C° 0.7 mm 0 m/s 745 mmHg 98%
    17:00 +22°C° 0.1 mm 0 m/s 745 mmHg 98%
    18:00 +22°C° 0.1 mm 0 m/s 745 mmHg 98%
    19:00 +22°C° 0.1 mm 0 m/s 745 mmHg 97%
    20:00 +22°C° 0 mm 0 m/s 745 mmHg 97%
    21:00 +22°C° 0 mm 0 m/s 746 mmHg 97%
    22:00 +21°C° 0 mm 0 m/s 746 mmHg 97%
    23:00 +21°C° 0 mm 0 m/s 746 mmHg 98%
    Voir plus